User: anonymous
Location: Unspecified
(0.0000°N, 0.0000°E)
Time: 21:09:39
(UTC+02:00)
Language:

Cosmos 540 Rocket - Orbit

View from above orbital plane
View from above orbital plane
View from above satellite
View from above satellite

Ground track
Ground track

The orbit data is extracted from the following two-line orbital elements,

1 06324U 72104B   14234.50508436  .00000213  00000-0  71451-4 0  3301
2 06324 074.0767 213.7347 0010455 261.2630 235.0832 14.42958073187035
Epoch (UTC): 22 August 2014 12:07:19
Eccentricity: 0.0010455
inclination: 74.0767°
perigee height: 741 km
apogee height: 756 km
right ascension of ascending node: 213.7347°
argument of perigee: 261.2630°
revolutions per day: 14.42958073
mean anomaly at epoch: 235.0832°
orbit number at epoch: 18703

The dashed part of the orbit path shows where the satellite is in the earth's shadow,  

DLR